Stündliche Wetter Kzyl-Utar

Heute, 16 Mai, Sonntag

Zeit Temperatur Niederschläge Wind Luftdruck Luftfeuchtigkeit
00:00 +19°C° 0 mm 3 m/S 750 mmHg 61%
01:00 +18°C° 0 mm 3 m/S 750 mmHg 62%
02:00 +18°C° 0 mm 3 m/S 750 mmHg 63%
03:00 +17°C° 0 mm 3 m/S 750 mmHg 64%
04:00 +18°C° 0 mm 3 m/S 750 mmHg 63%
05:00 +19°C° 0 mm 3 m/S 750 mmHg 62%
06:00 +20°C° 0 mm 3 m/S 750 mmHg 61%
07:00 +21°C° 0 mm 4 m/S 750 mmHg 56%
08:00 +23°C° 0 mm 5 m/S 750 mmHg 51%
09:00 +26°C° 0 mm 5 m/S 750 mmHg 45%
10:00 +27°C° 0 mm 6 m/S 750 mmHg 42%
11:00 +28°C° 0 mm 6 m/S 750 mmHg 40%
12:00 +29°C° 0 mm 7 m/S 749 mmHg 37%
13:00 +29°C° 0 mm 6 m/S 749 mmHg 37%
14:00 +30°C° 0 mm 6 m/S 749 mmHg 38%
15:00 +30°C° 0 mm 6 m/S 749 mmHg 39%
16:00 +29°C° 0 mm 5 m/S 749 mmHg 43%
17:00 +27°C° 0 mm 4 m/S 749 mmHg 48%
18:00 +26°C° 0 mm 4 m/S 749 mmHg 52%
19:00 +24°C° 0 mm 3 m/S 749 mmHg 58%
20:00 +22°C° 0 mm 3 m/S 749 mmHg 64%
21:00 +20°C° 0 mm 3 m/S 749 mmHg 70%
22:00 +19°C° 0 mm 2 m/S 749 mmHg 74%
23:00 +19°C° 0 mm 2 m/S 750 mmHg 79%

Morgen, 17 Mai, Montag

Zeit Temperatur Niederschläge Wind Luftdruck Luftfeuchtigkeit
00:00 +18°C° 0 mm 2 m/S 750 mmHg 83%
01:00 +19°C° 0 mm 1 m/S 750 mmHg 86%
02:00 +18°C° 0 mm 1 m/S 750 mmHg 88%
03:00 +16°C° 0 mm 0 m/S 750 mmHg 90%
04:00 +17°C° 0 mm 0 m/S 751 mmHg 86%
05:00 +20°C° 0 mm 1 m/S 751 mmHg 82%
06:00 +21°C° 0 mm 1 m/S 751 mmHg 78%
07:00 +23°C° 0 mm 1 m/S 751 mmHg 71%
08:00 +24°C° 0 mm 1 m/S 751 mmHg 63%
09:00 +26°C° 0 mm 2 m/S 751 mmHg 56%
10:00 +27°C° 0 mm 2 m/S 751 mmHg 51%
11:00 +28°C° 0 mm 3 m/S 751 mmHg 47%
12:00 +29°C° 0 mm 3 m/S 751 mmHg 42%
13:00 +29°C° 0 mm 3 m/S 751 mmHg 40%
14:00 +30°C° 0 mm 3 m/S 751 mmHg 38%
15:00 +30°C° 0 mm 4 m/S 751 mmHg 36%
16:00 +29°C° 0 mm 3 m/S 751 mmHg 42%
17:00 +28°C° 0 mm 2 m/S 751 mmHg 49%
18:00 +27°C° 0 mm 2 m/S 751 mmHg 55%
19:00 +25°C° 0 mm 2 m/S 751 mmHg 60%
20:00 +23°C° 0 mm 2 m/S 751 mmHg 66%
21:00 +20°C° 0 mm 2 m/S 751 mmHg 71%
22:00 +20°C° 0.1 mm 2 m/S 752 mmHg 72%
23:00 +19°C° 0.1 mm 2 m/S 752 mmHg 73%

übermorgen, 18 Mai, Dienstag

Zeit Temperatur Niederschläge Wind Luftdruck Luftfeuchtigkeit
00:00 +18°C° 0.1 mm 2 m/S 752 mmHg 74%
01:00 +18°C° 0.1 mm 2 m/S 752 mmHg 75%
02:00 +18°C° 0.1 mm 2 m/S 752 mmHg 77%
03:00 +17°C° 0.1 mm 2 m/S 752 mmHg 78%
04:00 +18°C° 0 mm 2 m/S 752 mmHg 76%
05:00 +19°C° 0 mm 2 m/S 752 mmHg 75%
06:00 +19°C° 0 mm 2 m/S 752 mmHg 73%
07:00 +21°C° 0 mm 2 m/S 752 mmHg 67%
08:00 +23°C° 0 mm 2 m/S 752 mmHg 61%
09:00 +25°C° 0 mm 3 m/S 752 mmHg 54%
10:00 +26°C° 0 mm 3 m/S 752 mmHg 52%
11:00 +27°C° 0 mm 3 m/S 752 mmHg 49%
12:00 +28°C° 0 mm 3 m/S 752 mmHg 46%
13:00 +28°C° 0 mm 3 m/S 752 mmHg 45%
14:00 +29°C° 0 mm 3 m/S 752 mmHg 44%
15:00 +29°C° 0 mm 2 m/S 752 mmHg 43%
16:00 +28°C° 0 mm 2 m/S 752 mmHg 48%
17:00 +27°C° 0 mm 2 m/S 752 mmHg 53%
18:00 +26°C° 0 mm 2 m/S 752 mmHg 58%
19:00 +24°C° 0.2 mm 2 m/S 752 mmHg 64%
20:00 +21°C° 0.2 mm 2 m/S 752 mmHg 70%
21:00 +19°C° 0.2 mm 2 m/S 752 mmHg 76%
22:00 +19°C° 0 mm 2 m/S 752 mmHg 77%
23:00 +19°C° 0 mm 3 m/S 752 mmHg 77%

19 Mai, Mittwoch

Zeit Temperatur Niederschläge Wind Luftdruck Luftfeuchtigkeit
00:00 +18°C° 0 mm 3 m/S 752 mmHg 78%
01:00 +18°C° 0 mm 3 m/S 752 mmHg 78%
02:00 +17°C° 0 mm 3 m/S 752 mmHg 78%
03:00 +16°C° 0 mm 3 m/S 752 mmHg 79%
04:00 +17°C° 0 mm 4 m/S 752 mmHg 76%
05:00 +17°C° 0 mm 4 m/S 752 mmHg 74%
06:00 +18°C° 0 mm 4 m/S 753 mmHg 71%
07:00 +19°C° 0 mm 5 m/S 753 mmHg 66%
08:00 +21°C° 0 mm 5 m/S 753 mmHg 60%
09:00 +22°C° 0 mm 5 m/S 753 mmHg 55%
10:00 +23°C° 0 mm 5 m/S 753 mmHg 51%
11:00 +25°C° 0 mm 5 m/S 752 mmHg 46%
12:00 +26°C° 0 mm 5 m/S 752 mmHg 42%
13:00 +26°C° 0 mm 5 m/S 752 mmHg 42%
14:00 +26°C° 0 mm 5 m/S 752 mmHg 41%
15:00 +26°C° 0 mm 5 m/S 752 mmHg 40%
16:00 +25°C° 0 mm 5 m/S 752 mmHg 45%
17:00 +23°C° 0 mm 5 m/S 751 mmHg 50%
18:00 +23°C° 0 mm 4 m/S 751 mmHg 54%
19:00 +21°C° 0 mm 4 m/S 751 mmHg 58%
20:00 +20°C° 0 mm 4 m/S 750 mmHg 62%
21:00 +19°C° 0 mm 4 m/S 750 mmHg 66%
22:00 +19°C° 0 mm 4 m/S 750 mmHg 66%
23:00 +19°C° 0 mm 5 m/S 750 mmHg 66%

20 Mai, Donnerstag

Zeit Temperatur Niederschläge Wind Luftdruck Luftfeuchtigkeit
00:00 +19°C° 0 mm 5 m/S 750 mmHg 67%
01:00 +17°C° 0 mm 5 m/S 750 mmHg 67%
02:00 +17°C° 0 mm 5 m/S 750 mmHg 67%
03:00 +16°C° 0 mm 5 m/S 750 mmHg 67%
04:00 +17°C° 0 mm 5 m/S 750 mmHg 67%
05:00 +17°C° 0 mm 5 m/S 750 mmHg 66%
06:00 +17°C° 0 mm 5 m/S 750 mmHg 66%
07:00 +19°C° 0 mm 6 m/S 750 mmHg 62%
08:00 +20°C° 0 mm 6 m/S 750 mmHg 59%
09:00 +22°C° 0 mm 7 m/S 750 mmHg 56%
10:00 +22°C° 0 mm 7 m/S 750 mmHg 56%
11:00 +23°C° 0 mm 8 m/S 749 mmHg 57%
12:00 +23°C° 0 mm 8 m/S 749 mmHg 57%
13:00 +23°C° 0.2 mm 8 m/S 749 mmHg 58%
14:00 +23°C° 0.2 mm 8 m/S 749 mmHg 60%
15:00 +22°C° 0.2 mm 7 m/S 749 mmHg 61%
16:00 +21°C° 0.4 mm 7 m/S 749 mmHg 64%
17:00 +20°C° 0.4 mm 6 m/S 749 mmHg 66%
18:00 +19°C° 0.4 mm 5 m/S 749 mmHg 68%
19:00 +17°C° 0.1 mm 5 m/S 749 mmHg 70%
20:00 +16°C° 0.1 mm 5 m/S 749 mmHg 72%
21:00 +15°C° 0.1 mm 5 m/S 749 mmHg 75%
22:00 +14°C° 0 mm 5 m/S 750 mmHg 76%
23:00 +13°C° 0 mm 5 m/S 750 mmHg 78%

21 Mai, Freitag

Zeit Temperatur Niederschläge Wind Luftdruck Luftfeuchtigkeit
00:00 +12°C° 0 mm 5 m/S 750 mmHg 80%
01:00 +11°C° 0 mm 4 m/S 751 mmHg 82%
02:00 +11°C° 0 mm 4 m/S 751 mmHg 85%
03:00 +11°C° 0 mm 4 m/S 751 mmHg 87%
04:00 +12°C° 0 mm 4 m/S 751 mmHg 84%
05:00 +13°C° 0 mm 4 m/S 752 mmHg 80%
06:00 +14°C° 0 mm 5 m/S 752 mmHg 77%
07:00 +15°C° 0 mm 5 m/S 752 mmHg 70%
08:00 +17°C° 0 mm 6 m/S 752 mmHg 64%
09:00 +19°C° 0 mm 6 m/S 752 mmHg 58%
10:00 +20°C° 0 mm 6 m/S 753 mmHg 54%
11:00 +21°C° 0 mm 6 m/S 753 mmHg 50%
12:00 +22°C° 0 mm 6 m/S 753 mmHg 47%
13:00 +22°C° 0 mm 6 m/S 753 mmHg 46%
14:00 +22°C° 0 mm 5 m/S 753 mmHg 45%
15:00 +23°C° 0 mm 5 m/S 753 mmHg 44%
16:00 +22°C° 0 mm 4 m/S 753 mmHg 51%
17:00 +21°C° 0 mm 2 m/S 753 mmHg 57%
18:00 +21°C° 0 mm 1 m/S 753 mmHg 64%
19:00 +19°C° 0 mm 2 m/S 753 mmHg 67%
20:00 +18°C° 0 mm 2 m/S 753 mmHg 70%
21:00 +17°C° 0 mm 2 m/S 753 mmHg 73%
22:00 +17°C° 0 mm 3 m/S 752 mmHg 72%
23:00 +17°C° 0 mm 3 m/S 752 mmHg 71%
Mehr zeigen

Wir brauchen deine Erlaubnis

Meteoprog und unser Service Anbieter werden persönliche Daten aufbewahren, so wie Cookies, Geräte Bezeichnung oder ähnliche Technologien von deinem Gerät und Prozess, so wie Persönliche Daten Inhalte und Werbungen, genauso wie social Media und den Verkehr zu analysieren.

  • Aufbewahrung und/oder Zugang zu deiner Geräte Informationen.

    Cookies, Geräte Bezeichnung oder andere Informationen, können aufbewahrt oder Zugang zu deinem Gerät erhalten, für den Grund, der oben angegeben wird.

  • Personalisierte Werbung und Inhalte, Messungen, Einblick in das Publikum und Produkt Entwicklung.

    Werbungen und Inhalte können personalisiert werden, basierend auf ein Profil. Mehr Daten können besser personalisierte Werbungen und Inhalte hinzufügen. Werbung und Inhalte können gezeigt und gemessen werden. Einblicke über das Publikum, welche die Werbung gesehen haben und den Inhalt, können abgeleitet werden. So wie Daten können genutzt werden, um es zu verbessern oder die Benutzer Erfahrung zu verbessern das System und die Software.

Wenn du “Ich stimme zu” klickst, erlaubst du uns, die Cookies zu benutzen die Geräte Bezeichnung, den Web oder ähnliche Technologien zu benutzen. Deine Settings, können in deinem Gerät bei deinem Browser geändert werden.

Für den bestimmten Zweck, berechtigten Interessen beruhen darauf, mehr als auf den Inhalt. Du kannst mehr darüber in unseren Privaten und Cookie Politik lesen.